Location: Alpe Hannig
(46.2070°N, 7.8668°E)
Time: 05:40:19
(UTC+00:00)

Daily predictions for brighter satellites

Satellite Brightness Start Highest point End
(mag) Time Altitude Azimuth Time Altitude Azimuth Time Altitude Azimuth
Cosmos 1707 Rocket 4.1 00:01:18 10° NNW 00:05:18 45° W 00:05:18 45° W
Okean 1 3.9 00:01:58 10° NNW 00:05:27 48° WNW 00:05:27 48° WNW
Cosmos 494 Rocket 3.9 00:13:18 58° SW 00:14:13 75° WNW 00:19:22 10° NNE
Cosmos 2285 Rocket 4.3 00:08:57 10° NNW 00:14:56 47° WSW 00:16:07 42° SW
Cosmos 2333 Rocket 2.6 00:10:19 10° NW 00:15:37 42° WSW 00:16:02 41° WSW
Meteor 2-9 4.5 00:15:31 59° SSW 00:16:35 85° W 00:22:02 10° N
Cosmos 1302 Rocket 4.4 00:13:11 10° NNW 00:18:20 58° ENE 00:20:23 34° SE
ATLAS 5 CENTAUR R/B 2.4 00:18:48 10° NW 00:24:21 76° NE 00:28:59 20° SE
Cosmos 2360 Rocket 3.9 00:21:38 10° WNW 00:25:09 17° W 00:25:09 17° W
PSLV R/B 4.4 00:22:50 10° N 00:27:22 45° WNW 00:28:18 40° WSW
Cosmos 2242 Rocket 3.9 00:23:08 10° N 00:27:31 58° ENE 00:28:16 50° ESE
Cosmos 1980 3.9 00:21:54 10° NNW 00:27:35 69° ENE 00:30:19 31° SE
Cosmos 1666 2.8 00:29:45 71° NW 00:29:45 71° NW 00:33:24 10° N
Meteor 1-14 Rocket 4.2 00:30:32 49° SW 00:31:55 67° WNW 00:37:29 10° N
Cosmos 1378 3.3 00:32:45 10° N 00:36:24 65° ENE 00:36:24 65° ENE
Cosmos 1536 3.4 00:40:02 43° ESE 00:40:24 45° E 00:44:15 10° NNE
Resurs 1-4 Rocket 2.8 00:37:16 10° NNE 00:42:23 45° E 00:44:08 34° SE
APEX 4.1 00:40:59 51° SSW 00:42:29 89° ESE 00:48:52 10° NNE
Meteor 1-13 Rocket 4.3 00:38:19 10° N 00:44:12 77° ENE 00:46:32 38° SSE
Cosmos 2297 Rocket 2.3 00:46:29 45° S 00:48:06 64° ESE 00:53:43 10° NNE
Cosmos 2237 Rocket 2.1 00:46:27 10° NNW 00:52:10 85° WSW 00:54:34 36° SSE
Cosmos 1869 Rocket 3.8 00:53:48 49° SSE 00:54:47 63° E 00:59:13 10° NNE
NPP 4.3 00:49:53 10° NNE 00:55:05 46° E 00:57:13 31° SSE
Cosmos 2227 Rocket 2.4 00:56:52 40° SSE 00:58:43 59° ESE 01:04:16 10° NNE
TSX-5 3.6 00:59:09 72° W 00:59:23 75° WNW 01:03:42 10° NNE
Cosmos 1709 Rocket 4.0 00:58:20 40° SSW 01:00:44 73° W 01:07:07 10° N
USA 229 DEB 4.1 00:55:27 10° NW 01:02:30 49° WSW 01:05:34 33° S
USA 229 4.1 00:55:32 10° NW 01:02:36 50° WSW 01:05:44 33° S
EO 1 Del DPAF 4.5 01:00:15 10° N 01:03:30 28° WNW 01:03:46 28° WNW
Timation 2 Rocket 4.3 01:01:41 33° SSE 01:03:59 51° ESE 01:09:51 10° NE
Cosmos 1933 Rocket 4.2 01:07:30 39° WSW 01:08:16 42° WNW 01:12:32 10° N
UNK 3.9 01:06:32 35° SSE 01:08:29 75° ENE 01:13:10 10° N
NOSS 0 Rocket 4.3 01:04:06 10° NW 01:09:57 44° WSW 01:11:33 37° SW
Meteor 1-23 Rocket 4.4 01:04:42 10° N 01:10:24 72° ENE 01:13:47 25° SSE
MOZ.5/SAFIR/RUBIN 5/SL-8 4.1 01:11:26 44° SW 01:12:14 50° W 01:16:51 10° NNW
COSMOS 2428 4.0 01:08:13 10° NW 01:12:32 23° W 01:12:40 23° WSW
Lacrosse 5 2.3 01:12:35 39° S 01:13:45 46° SE 01:18:36 10° ENE
ADEOS Rocket 3.0 01:11:00 21° SSE 01:14:51 70° ENE 01:20:19 10° N
SL-16 R/B 2.8 01:09:29 10° NNW 01:15:04 56° ENE 01:20:37 10° SE
CZ-2D R/B 2.1 01:11:05 10° NNE 01:16:29 85° ESE 01:18:42 38° S
SL-16 R/B 2.4 01:13:31 28° SSE 01:17:00 83° WSW 01:23:14 10° NNW
Okean 1-7 3.5 01:13:46 10° NNW 01:17:45 40° W 01:18:05 40° WSW
Cosmos 1544 3.0 01:18:15 61° WSW 01:18:29 63° W 01:22:07 10° N
Helios 1A 3.6 01:18:25 38° WSW 01:18:36 38° W 01:22:34 10° NNW
COSMOS 2455 4.3 01:14:38 14° W 01:18:54 30° NW 01:24:11 10° NNE
BREEZE-M DEB (TANK) 3.4 01:22:27 32° E 01:22:27 32° E 01:24:02 10° ENE
Cosmos 2184 Rocket 4.3 01:18:03 26° SSE 01:21:40 63° E 01:27:51 10° NNE
Okean 3 3.5 01:17:42 10° NNW 01:21:59 65° W 01:22:54 50° SSW
Cosmos 909 Rocket 4.2 01:18:54 34° SSW 01:22:01 80° ESE 01:29:38 10° NE
Cosmos 2219 Rocket 4.0 01:19:52 10° WNW 01:22:37 15° W 01:22:37 15° W
ADEOS II 2.7 01:20:04 10° NNE 01:25:12 51° E 01:28:03 25° SSE
Cosmos 1340 Rocket 4.0 01:27:12 27° W 01:27:44 28° WNW 01:31:12 10° N
Cosmos 2263 Rocket 4.2 01:23:59 10° SE 01:27:54 19° E 01:31:49 10° NE
Cosmos 1743 2.6 01:33:42 51° SW 01:34:31 71° W 01:38:22 10° N
IRS-1D 4.2 01:32:24 10° NNE 01:37:12 47° E 01:40:15 21° SSE
NOSS 2-2 (D) 4.4 01:33:51 10° NW 01:39:18 71° SW 01:46:56 10° SSE
ASTEX 1 4.2 01:38:33 30° WSW 01:39:45 34° W 01:44:14 10° NNW
AQUA 3.7 01:35:01 10° NNE 01:39:48 88° WNW 01:41:55 34° SSW
Meteor 1-28 Rocket 3.9 01:37:41 19° SE 01:40:09 51° ENE 01:43:47 10° N
Cosmos 1975 4.0 01:38:02 21° SSE 01:40:18 39° E 01:44:08 10° NNE
Helios 1B rocket 2.4 01:39:56 10° N 01:44:03 77° WNW 01:45:31 39° SSW
Cosmos 2219 3.5 01:42:03 29° SW 01:44:57 60° WNW 01:50:41 10° NNE
Cosmos 2074 Rocket 3.9 01:43:18 27° SSW 01:46:58 83° W 01:53:14 10° N
Cosmos 2344 4.4 01:44:38 16° S 01:49:56 39° ESE 01:56:51 10° NE
Cosmos 1378 Rocket 4.3 01:48:16 10° N 01:52:35 52° ENE 01:56:46 10° SSE
Iridium 4 Rocket 3.9 01:49:52 10° N 01:55:17 74° E 02:00:21 14° S
Cosmos 614 Rocket 4.0 01:52:44 27° S 01:55:37 77° ESE 02:00:51 10° NNE
Cosmos 2084 Rocket 3.7 01:51:40 10° NW 01:55:43 45° WSW 01:57:52 25° S
Landsat 4 4.0 01:53:03 10° NNE 01:56:44 59° ESE 01:58:33 27° S
Cosmos 1707 4.0 01:55:25 10° N 01:59:03 38° ENE 02:02:39 10° SE
Cosmos 192 4.2 01:54:08 10° NNW 01:59:04 79° WSW 02:03:39 12° SSE
Cosmos 407 Rocket 4.4 01:57:16 16° S 02:01:13 43° ESE 02:06:12 10° NE
Cosmos 1992 Rocket 4.4 01:56:56 10° NNW 02:01:54 44° WSW 02:04:37 24° SSW
DELTA 2 DEB (DPAF) 4.2 01:58:15 14° SSE 02:02:04 83° ENE 02:06:32 10° NNW
Cosmos 2082 3.7 02:02:39 25° SSW 02:06:07 82° WNW 02:11:54 10° NNE
MINOTAUR 4 R/B 4.0 02:05:02 30° S 02:06:34 61° WSW 02:10:07 10° NNW
Cosmos 1733 Rocket 3.1 02:05:38 27° SSW 02:07:57 68° W 02:12:25 10° N
ATLAS 5 CENTAUR R/B 3.5 02:04:07 10° WNW 02:08:45 24° WSW 02:10:22 22° SW
MSX 4.4 02:04:20 10° NNE 02:09:58 54° E 02:15:18 11° S
Cosmos 1842 3.2 02:07:06 10° NNW 02:10:55 63° W 02:13:03 24° S
CZ-4C R/B 3.3 02:05:49 10° NW 02:12:59 71° NE 02:21:20 10° SE
IDEFIX/ARIANE 42P 2.6 02:12:40 10° NNE 02:17:53 82° ESE 02:22:01 16° SSW
USA 215 4.3 02:12:05 10° ENE 02:17:57 34° SE 02:23:07 13° S
Meteor 1-21 4.3 02:12:21 10° NNW 02:18:09 87° W 02:23:58 10° S
Cosmos 1356 Rocket 3.5 02:17:50 17° S 02:20:51 68° E 02:24:51 10° NNE
Resurs 1-4 Rocket 3.4 02:17:31 10° N 02:21:59 28° WNW 02:25:13 16° WSW
CBERS-1 4.0 02:20:37 10° NNE 02:25:46 83° WNW 02:29:51 16° SSW
Cosmos 2341 Rocket 4.2 02:23:21 10° S 02:29:34 73° E 02:35:47 10° NNE
Cosmos 2251 Rocket 4.0 02:27:52 19° SW 02:31:26 49° WNW 02:36:35 10° NNE
Meteor 1-29 3.7 02:28:30 10° N 02:31:35 35° WNW 02:33:12 22° WSW
Cosmos 2297 Rocket 3.7 02:28:17 11° W 02:32:38 25° NW 02:37:17 10° N
Cosmos 2237 Rocket 3.9 02:32:48 10° WNW 02:35:19 13° W 02:36:21 12° WSW
Cosmos 1340 3.8 02:35:44 10° N 02:39:21 45° ENE 02:42:57 10° SSE
SL-08 R/B 3.8 02:35:42 10° SSE 02:40:35 68° ENE 02:45:32 10° N
Okean 2 3.7 02:36:35 10° NNW 02:40:38 50° W 02:44:24 12° SSW
Nadezhda 3 Rocket 4.3 02:34:56 10° NNW 02:41:02 49° W 02:47:05 10° SSW
CZ-2D R/B 4.5 02:37:33 10° NNE 02:41:21 42° E 02:45:12 10° S
Cosmos 1782 Rocket 4.1 02:37:44 10° S 02:41:59 56° E 02:46:16 10° NNE
Cosmos 1603 4.1 02:36:24 10° NNW 02:42:01 69° ENE 02:47:38 10° SE
Cosmos 1238 Rocket 2.8 02:40:33 21° SW 02:42:15 42° WNW 02:45:26 10° N
Cosmos 2227 Rocket 3.6 02:38:41 11° WSW 02:43:09 27° NW 02:47:56 10° N
Spot 1 3.9 02:40:24 10° S 02:44:35 75° WSW 02:48:41 10° NNW
Cosmos 1626 3.8 02:44:19 10° N 02:47:44 34° ENE 02:51:07 10° SE
CZ-2C R/B 3.6 02:43:46 10° NNE 02:48:01 37° E 02:52:17 10° SSE
BREEZE-M DEB (TANK) 3.7 02:38:45 12° WSW 02:48:04 71° SSE 02:51:17 10° ENE
Cosmos 1674 3.2 02:44:43 10° N 02:48:33 63° E 02:52:20 10° SSE
CZ-4C R/B 3.6 02:47:05 10° S 02:51:00 52° W 02:55:10 10° NNW
Cosmos 1190 Rocket 4.1 02:46:23 11° SSW 02:51:28 85° ESE 02:56:49 10° NNE
USA 267 4.3 02:46:04 10° E 02:52:19 50° NNE 02:58:36 10° NW
CZ-2D R/B 4.0 02:52:36 10° NNW 02:55:51 17° WNW 02:59:08 10° W
Lacrosse 5 2.7 02:51:54 10° WSW 02:56:47 45° NNW 03:01:39 10° NE
Cosmos 2227 4.3 02:52:30 10° SSW 02:58:07 81° ESE 03:03:46 10° NNE
SL-16 R/B 3.3 02:54:18 10° NW 02:58:47 25° WSW 03:03:16 10° SSW
Iridium 45 4.4 02:55:13 10° S 02:58:49 79° W 03:02:20 10° N
Cosmos 1140 Rocket 3.6 02:54:33 12° SSW 02:59:26 69° WNW 03:04:41 10° NNE
ADEOS Rocket 4.3 02:57:57 12° SW 03:00:57 17° W 03:04:30 10° NW
SL-16 R/B 4.2 02:58:37 10° WSW 03:01:30 14° W 03:04:36 10° WNW
ERS-1 4.5 02:57:47 10° NNE 03:02:50 86° WNW 03:07:47 10° SSW
ARIANE 5 R/B 2.6 02:58:18 10° NNE 03:03:29 83° WNW 03:08:41 10° SSW
ADEOS II 3.4 03:00:21 10° N 03:04:35 25° WNW 03:08:48 10° WSW
CZ-4B R/B 3.4 03:01:04 10° NNE 03:06:00 89° E 03:10:47 10° SSW
Cosmos 1954 Rocket 4.3 03:00:59 10° SSW 03:06:16 72° ESE 03:11:35 10° NNE
IRS-1C 4.3 03:02:17 10° N 03:07:35 64° WNW 03:12:51 10° SSW
ATLAS CENTAUR R/B 1.7 03:07:17 10° SSW 03:10:57 55° ESE 03:14:51 10° NE
Cosmos 2263 Rocket 2.3 03:05:34 10° SW 03:11:13 70° WNW 03:16:55 10° NNE
NOSS 3-3 (A) 4.0 03:05:32 10° SW 03:11:17 89° NW 03:17:53 10° NE
NOSS 3-3 (C) 3.9 03:05:39 10° SW 03:11:23 89° WNW 03:17:59 10° NE
CZ-2C R/B 3.8 03:08:39 10° NNE 03:12:12 43° E 03:15:47 10° S
USA 290 4.2 03:09:28 10° N 03:12:29 35° ENE 03:15:29 10° SE
Spot 4 Rocket 4.3 03:08:01 10° NNE 03:13:12 74° ESE 03:18:21 10° S
Cosmos 1461 3.4 03:10:48 10° SW 03:15:19 59° NW 03:19:44 10° NNE
Cosmos 1805 3.3 03:18:20 10° S 03:22:13 90° E 03:26:09 10° N
Cosmos 1300 Rocket 3.9 03:20:13 10° S 03:24:31 71° E 03:28:52 10° NNE
Cosmos 1346 Rocket 4.1 03:21:29 10° N 03:25:16 43° ENE 03:29:00 10° SSE
Cosmos 1975 Rocket 3.2 03:21:25 10° NNW 03:25:45 57° W 03:30:02 10° S
KORONAS-FOTON 4.3 03:25:09 10° NNW 03:28:51 41° W 03:32:32 10° SSW
SL-14 R/B 3.6 03:26:05 10° N 03:29:58 70° E 03:33:51 10° SSE
